Wind_Speed
123 125 127 130 132 135 137 138 138 137 136 135 134 133 132 131 131 131 130 129 129 128 127 126 126 125 125 124 124 124 125 126 127 127 128 129 129 130 130 130 130 130 130 130 130 130 131 131 131 131 131 130 129 127 124 120 115 110 105 100 96 93 90 87 85 83 81 79 77 75 74 72 70 69 67 65 64 62 60 57 55 52 49 47 45 43
129 132 134 136 137 138 139 139 138 137 136 135 134 133 132 132 131 130 130 129 128 127 126 126 125 125 125 126 126 127 127 128 129 130 130 131 131 131 131 131 131 131 131 131 131 131 132 132 132 132 131 130 128 125 121 116 111 106 101 97 94 91 88 85 83 81 80 78 76 74 73 71 69 67 66 64 62 61 58 56 54 51 48 46 44 43
134 136 138 139 139 139 139 138 137 136 135 135 134 133 132 131 130 130 129 128 127 127 127 127 126 127 127 128 129 129 130 131 131 132 132 132 132 132 132 132 132 132 132 132 132 132 133 132 132 132 131 128 125 121 116 111 107 102 98 95 92 89 86 84 82 80 78 77 75 73 72 70 68 66 65 63 61 59 57 55 52 50 47 45 43 42
138 139 140 140 140 139 138 138 137 136 135 135 134 133 132 131 130 130 129 129 128 128 129 129 129 129 130 131 131 132 132 132 133 133 133 133 133 133 133 133 133 133 133 133 133 133 133 133 132 131 129 126 121 117 112 107 103 99 96 92 89 87 85 83 81 79 77 76 74 72 71 69 67 65 64 62 60 58 56 54 51 49 46 44 43 41
140 141 141 140 140 140 139 138 137 136 136 135 134 133 132 132 131 131 131 131 131 131 132 132 132 132 133 133 133 134 134 134 134 134 134 134 134 134 134 134 134 134 134 134 134 134 133 133 131 129 126 121 117 112 107 103 99 96 93 90 88 85 83 81 79 78 76 74 73 71 69 68 66 64 62 61 59 57 55 52 50 48 46 44 42 41
142 141 141 141 140 140 139 139 138 137 137 136 136 135 135 134 134 134 134 134 134 135 135 135 135 135 135 135 135 135 135 135 135 135 135 135 135 135 135 135 135 135 135 135 135 134 133 131 128 125 121 116 111 107 103 99 96 93 91 88 86 84 82 80 78 76 75 73 71 70 68 67 65 63 61 59 57 55 53 51 49 47 45 43 41 40
143 142 141 141 141 140 140 139 139 139 138 138 138 138 138 137 137 137 137 137 137 137 137 137 137 137 137 137 137 136 136 136 136 136 136 136 136 136 136 136 136 136 136 135 134 133 131 128 124 120 115 111 106 103 99 96 93 91 88 86 84 82 80 79 77 75 74 72 70 69 67 65 64 62 60 58 56 54 52 50 48 46 44 42 41 40
143 142 142 141 141 141 141 140 140 140 140 140 140 140 140 140 140 140 139 139 139 139 139 139 139 139 139 138 138 137 137 137 137 137 137 137 137 137 137 137 137 136 135 134 132 130 127 123 119 114 110 106 102 99 96 93 91 88 86 84 82 80 79 77 76 74 72 71 69 67 66 64 62 60 58 57 55 53 50 48 46 44 43 41 40 39
143 142 142 141 141 141 141 142 142 142 142 142 142 142 142 142 142 142 142 141 141 141 141 140 140 140 140 140 140 139 139 138 138 138 139 139 139 138 138 137 136 135 134 131 129 125 121 117 113 109 105 101 98 95 93 91 88 86 84 82 81 79 77 76 74 72 71 69 68 66 65 63 61 59 57 55 53 51 49 47 45 43 42 41 40 39
143 143 143 143 143 143 143 143 144 144 144 144 144 144 144 144 143 143 144 143 144 144 143 142 142 141 142 142 141 141 140 140 140 140 140 139 139 138 137 136 134 133 130 127 124 120 115 111 107 104 100 97 95 92 90 88 86 84 82 80 79 77 76 74 73 71 70 68 67 65 63 62 60 58 56 54 52 50 48 46 44 42 41 40 39 38
145 145 146 146 146 146 146 146 147 146 146 146 146 146 146 145 145 145 145 145 146 146 145 144 143 143 142 142 142 142 141 141 140 140 140 139 138 137 135 133 131 128 125 121 117 113 109 105 102 99 96 94 92 90 87 86 84 82 80 79 77 76 74 73 71 70 68 67 65 64 62 60 59 57 55 52 50 48 46 45 43 42 40 39 39 38
148 149 149 150 150 150 150 150 150 149 149 148 148 148 148 148 147 147 146 146 146 146 146 146 145 144 143 142 142 142 141 141 140 139 138 137 136 134 131 129 126 122 119 115 111 107 104 101 98 95 93 91 89 87 85 83 82 80 78 77 76 74 73 71 70 68 67 65 64 62 61 59 57 55 53 51 49 47 45 43 42 41 40 39 38 38
152 152 153 153 153 153 153 153 152 151 151 150 149 149 149 149 148 148 147 147 147 147 146 145 145 144 144 143 142 141 140 139 138 137 135 133 131 129 126 123 119 116 112 108 105 102 99 96 94 92 90 88 86 84 83 81 80 78 77 75 74 72 71 70 68 67 65 64 62 61 59 58 56 54 52 50 48 46 44 42 41 40 39 38 38 37
155 156 156 156 156 155 155 154 153 152 152 151 150 150 149 149 148 148 148 147 147 147 146 145 144 144 143 143 141 139 137 136 134 132 130 128 125 123 119 116 113 109 106 103 100 97 95 93 91 89 87 86 84 82 81 79 78 76 75 74 72 71 69 68 66 65 64 62 61 59 58 56 54 53 50 48 47 45 43 41 40 39 39 38 38 37
158 158 158 157 157 156 155 154 154 153 152 152 151 151 150 150 149 149 148 148 147 147 146 144 143 142 141 140 138 136 133 131 129 127 124 122 119 116 113 109 106 103 100 98 96 94 92 90 88 86 85 83 82 80 79 77 76 75 73 72 71 69 68 66 65 63 62 61 59 58 56 55 53 51 49 47 45 43 42 41 39 39 38 38 37 37
160 159 159 158 158 157 156 155 155 154 153 153 152 152 151 150 150 149 148 147 146 145 143 142 140 139 137 136 134 131 128 125 123 121 118 115 112 110 106 103 100 98 96 94 92 90 89 87 85 84 82 81 79 78 77 75 74 73 71 70 69 67 66 64 63 62 61 59 58 56 55 53 51 49 47 45 44 42 41 40 39 38 38 38 37 37
160 160 159 159 159 158 157 156 156 155 154 153 152 151 150 149 148 147 145 144 142 141 139 138 136 133 132 130 128 126 122 119 116 114 111 109 106 103 100 97 95 94 92 90 89 87 86 84 83 81 80 79 77 76 75 73 72 71 70 68 67 66 64 63 62 60 59 58 56 54 53 51 49 47 46 44 42 41 40 39 38 38 38 38 37 37
160 160 160 160 159 159 158 156 155 154 153 152 150 149 148 146 144 143 141 139 137 136 134 132 130 128 126 124 122 120 116 113 110 107 105 103 100 98 95 93 91 90 89 87 86 84 83 81 80 79 78 76 75 74 73 72 70 69 68 67 65 64 63 61 60 59 57 56 54 52 51 49 47 45 44 42 41 40 39 38 38 38 38 37 37 37
161 160 159 159 158 157 155 154 152 151 149 148 146 144 143 141 139 137 135 134 132 130 128 126 124 122 120 118 116 113 110 106 103 101 99 97 95 93 91 89 88 87 86 85 83 82 80 79 78 77 75 74 73 72 71 70 69 67 66 65 63 62 61 59 58 57 55 53 52 50 48 47 45 44 42 41 40 39 38 38 38 38 38 38 37 37
158 157 156 155 153 152 151 149 147 145 144 142 140 138 136 135 133 131 129 127 125 124 122 120 118 116 114 112 109 107 104 100 98 96 95 93 91 90 88 86 85 84 83 82 80 79 78 77 76 75 74 72 71 70 69 68 67 66 64 63 62 60 59 57 56 54 53 51 50 48 46 45 43 42 41 40 39 38 38 38 38 38 38 38 38 38
152 151 149 147 146 145 144 142 141 139 137 135 133 132 130 128 127 125 123 121 119 117 116 113 112 110 108 105 103 101 98 95 93 92 90 89 88 87 85 83 82 81 80 79 78 77 75 75 74 73 72 71 70 68 67 66 65 63 62 61 60 58 57 55 54 52 50 49 47 46 45 43 42 41 39 39 38 38 38 38 38 38 38 38 38 38
143 142 141 139 138 137 136 135 133 131 130 128 126 125 124 122 120 119 117 115 113 111 109 108 106 104 102 99 98 96 93 91 89 88 87 86 85 84 82 81 79 79 78 77 75 74 73 73 72 71 70 69 67 66 65 64 63 61 60 59 57 56 54 53 51 50 48 47 45 44 43 41 40 39 38 38 38 37 38 38 38 38 38 38 38 38
134 133 132 131 130 129 128 127 126 124 123 121 120 119 117 116 114 112 111 109 107 105 104 102 100 98 96 95 93 91 89 87 86 85 84 83 82 81 80 78 77 76 75 74 73 72 72 71 70 69 68 67 65 64 63 62 61 59 58 57 55 54 52 50 49 47 46 45 43 42 41 40 39 38 38 37 37 37 37 37 37 37 37 38 37 38
125 125 124 124 123 122 121 120 119 118 117 115 114 112 111 109 108 106 105 103 101 100 98 96 95 93 92 90 88 87 85 84 83 81 81 80 80 79 77 76 74 74 73 72 71 70 70 69 68 67 66 64 63 62 61 60 58 57 56 54 53 51 50 48 47 45 44 43 42 41 40 39 38 38 37 37 37 37 37 37 37 37 37 37 37 37
118 118 117 117 116 115 115 114 113 112 111 109 108 107 105 104 102 101 99 98 96 95 93 91 90 88 87 85 84 83 82 81 79 78 78 78 77 76 74 73 72 71 71 70 69 68 68 67 66 65 63 62 61 60 59 57 56 55 53 52 50 49 47 46 45 43 42 41 40 39 38 38 37 36 36 36 36 36 35 35 35 35 36 36 36 36
112 112 111 111 110 110 109 108 107 106 105 103 102 101 100 98 97 95 94 93 91 90 88 86 85 84 83 81 80 79 79 78 77 76 75 75 74 73 72 71 70 69 69 68 67 66 65 65 64 62 61 60 59 58 56 55 54 52 50 49 48 46 45 44 43 42 41 40 39 38 37 36 36 35 35 34 34 34 34 34 34 34 34 34 35 35
107 107 106 106 105 104 103 103 102 100 99 98 97 96 94 93 92 90 89 88 87 85 83 82 81 80 79 78 77 76 76 75 74 73 73 72 71 71 70 69 67 67 67 66 65 64 63 62 61 60 59 58 57 56 54 53 51 50 48 47 45 44 43 42 41 40 39 38 37 36 35 34 34 33 33 32 32 32 32 32 32 33 33 34 34 35
103 102 102 101 100 99 98 98 97 96 94 93 92 91 89 88 87 86 85 84 82 80 79 78 77 76 75 75 74 73 73 72 72 71 70 69 69 68 67 66 65 65 64 64 63 62 61 60 59 58 57 56 55 53 52 50 49 47 46 45 43 42 41 40 39 38 37 36 35 34 33 33 32 32 31 31 31 31 31 32 32 32 33 34 34 35
99 99 98 97 96 95 94 93 92 91 90 89 87 86 85 84 82 81 80 79 77 76 75 74 73 73 72 72 71 71 70 70 69 68 67 66 66 66 65 64 63 63 62 62 61 60 59 58 57 56 55 54 52 51 49 48 46 45 44 42 41 40 39 38 37 36 35 34 33 33 32 31 31 31 31 31 31 31 31 32 32 33 34 35 35 36
96 95 94 93 92 91 90 89 88 87 86 84 83 82 81 80 78 77 76 75 74 72 72 71 70 70 70 69 69 69 68 67 66 65 64 64 64 64 63 62 62 61 60 59 59 58 57 56 55 54 52 51 50 48 47 45 44 43 42 40 39 38 37 36 35 34 33 33 32 31 31 31 31 31 31 31 32 32 32 33 34 34 35 36 37 38
93 92 91 90 88 87 86 85 84 83 82 81 80 78 77 76 75 73 72 71 70 69 69 68 68 67 67 67 67 66 66 65 64 63 62 62 62 62 61 60 60 59 58 57 57 56 55 54 53 51 50 48 47 46 45 43 42 41 40 38 37 36 35 34 33 33 32 32 31 31 31 31 31 32 32 32 33 33 34 34 35 36 37 38 39 40
90 89 87 86 85 84 83 82 81 80 78 77 76 75 74 72 71 70 69 68 67 66 66 65 65 65 65 64 64 64 64 63 62 61 60 60 60 60 59 58 58 57 56 55 55 54 53 52 50 49 47 46 45 44 42 41 40 39 38 37 36 35 34 33 32 32 31 31 31 31 32 32 32 33 33 33 34 35 35 36 37 38 38 39 40 41
86 85 84 83 82 81 80 78 77 76 75 74 73 72 70 69 68 67 66 65 64 64 63 63 63 63 63 62 62 62 62 61 60 60 59 59 58 58 57 56 56 55 54 54 52 51 50 49 48 47 45 44 43 42 40 39 38 37 36 35 34 34 33 32 32 31 31 31 31 32 32 32 33 33 34 35 35 36 37 37 38 39 40 40 41 42
83 82 81 79 78 77 76 75 74 73 72 71 70 68 67 66 65 64 63 62 62 61 61 61 61 61 61 61 60 60 60 59 59 58 57 57 57 56 55 55 54 53 52 51 50 49 48 47 46 44 43 42 41 40 39 38 37 36 35 34 33 33 32 32 31 31 31 31 32 32 32 33 33 34 35 35 36 37 38 38 39 40 40 41 42 42
79 78 77 76 75 74 73 72 71 70 69 68 66 65 64 63 62 61 61 60 60 59 59 59 59 59 59 59 59 59 59 58 57 56 56 55 55 54 54 53 52 51 50 49 48 47 46 45 43 42 41 40 39 38 37 36 35 34 34 33 33 32 32 31 31 31 31 31 32 32 32 33 33 34 35 36 36 37 38 38 39 40 40 41 42 42
76 75 74 73 71 71 70 69 68 67 66 65 64 63 62 61 60 59 59 58 58 58 58 58 57 57 57 57 57 57 57 56 56 55 54 54 53 52 52 51 50 49 47 47 45 44 43 43 42 41 40 39 38 37 36 35 34 33 33 32 32 32 32 31 31 31 31 31 32 32 32 33 33 34 35 35 36 37 37 38 39 39 40 41 42 42
72 71 70 69 68 67 66 66 65 64 63 62 61 60 59 59 58 57 57 56 56 56 56 56 56 56 56 56 56 56 55 55 54 54 53 52 51 50 49 48 47 46 45 44 43 42 41 41 40 39 39 38 37 36 35 34 33 33 32 32 32 31 31 31 31 31 32 32 32 32 32 33 33 34 34 35 36 36 37 38 38 39 40 41 42 42
69 68 67 66 65 64 63 63 62 61 60 59 59 58 57 57 56 56 55 55 55 55 55 55 55 55 55 55 54 54 54 53 53 52 52 51 50 48 47 46 45 44 43 42 41 40 40 39 38 38 37 37 36 35 34 34 33 33 32 32 31 31 31 32 32 32 32 32 32 32 33 33 33 34 34 35 36 36 37 38 39 39 40 41 42 43
66 65 64 63 62 61 61 60 59 59 58 57 56 56 55 55 55 54 54 54 54 54 54 54 54 54 54 53 53 52 52 52 51 50 50 49 48 46 45 44 43 42 41 40 39 39 38 38 37 37 36 36 35 35 34 33 33 33 32 32 32 32 32 32 32 32 32 33 33 33 33 33 34 34 35 35 36 37 38 38 39 40 41 41 42 43
63 62 61 61 60 59 58 58 57 57 56 55 54 54 54 54 54 54 54 54 54 54 53 53 53 53 52 52 51 51 50 50 49 48 48 47 45 44 43 42 41 40 39 38 38 37 37 36 36 36 35 35 35 35 34 34 33 33 32 32 33 33 32 32 32 32 33 33 33 34 34 34 35 35 36 36 37 37 38 39 40 40 41 42 43 43
60 60 59 58 58 57 56 56 55 54 54 53 53 53 53 53 53 53 53 53 53 53 52 52 51 51 51 50 50 49 49 48 47 46 45 44 43 42 41 40 39 38 38 37 36 36 35 35 35 35 35 35 35 34 34 34 33 33 33 33 33 33 32 32 33 33 33 33 34 34 34 35 35 36 36 37 37 38 39 39 40 41 42 42 43 44
58 57 57 56 56 55 54 54 53 52 52 52 52 52 52 52 52 52 52 52 52 51 51 50 50 49 49 48 48 47 47 46 45 44 43 42 41 40 39 39 38 37 36 35 35 34 34 34 34 34 34 34 34 34 34 34 33 33 33 33 33 33 33 33 33 33 33 34 34 35 35 35 36 36 37 37 38 39 39 40 41 42 43 43 44 45
56 55 55 54 54 53 52 52 51 51 51 51 51 51 51 51 51 51 51 51 50 50 49 49 48 48 47 47 46 45 45 44 43 42 41 40 39 38 38 37 36 35 34 34 33 33 33 33 33 33 33 33 33 33 33 33 33 32 32 32 32 33 33 33 33 33 33 34 34 34 35 35 36 36 37 38 38 39 40 41 42 43 44 44 45 46
54 53 53 52 52 51 50 50 50 50 50 50 51 51 51 50 50 50 50 49 49 48 48 47 47 46 45 45 44 43 42 42 41 40 39 38 38 37 36 35 34 34 33 32 32 32 32 32 32 32 32 32 32 32 32 32 32 32 32 32 32 32 33 33 33 33 33 34 34 34 35 35 36 37 38 38 39 40 41 42 43 44 45 45 46 47
52 52 51 50 50 49 49 49 49 49 49 50 50 50 50 49 49 49 48 48 47 47 46 45 45 44 43 43 42 41 40 40 39 38 37 37 36 35 34 33 33 32 32 31 31 31 30 31 31 31 30 31 31 31 31 31 32 32 32 32 32 32 32 33 33 33 34 34 34 35 35 36 37 37 38 39 40 41 42 43 44 45 46 47 47 48
50 50 49 48 48 47 47 47 48 48 49 49 49 49 48 48 47 47 47 46 45 45 44 43 43 42 41 41 40 39 38 37 37 36 35 35 34 33 32 32 31 31 30 30 30 30 29 29 29 30 30 30 30 31 31 31 32 32 32 32 32 32 33 33 34 34 34 35 35 36 36 37 37 38 39 40 41 42 43 44 45 46 47 48 49 49
49 48 47 47 46 46 47 47 47 48 48 48 48 47 47 46 46 45 45 44 44 43 42 41 41 40 39 39 38 37 36 35 34 34 33 32 32 31 31 30 30 29 29 29 29 29 29 29 29 29 29 29 30 30 31 31 32 32 32 32 33 33 34 34 35 35 35 36 36 37 37 38 39 39 41 41 42 43 44 45 46 47 48 49 49 50
47 46 45 45 45 45 46 46 47 47 47 47 46 46 45 45 44 44 43 42 42 41 40 39 39 38 37 36 36 35 34 33 32 31 30 30 30 29 29 29 29 29 29 29 29 29 29 29 29 29 29 29 30 30 31 31 32 32 33 33 34 34 35 35 36 36 37 37 37 38 38 39 40 41 42 42 43 44 45 46 47 47 48 49 50 51
45 44 44 44 44 45 45 46 46 46 46 45 45 44 43 43 42 41 41 40 39 39 38 37 37 36 35 34 34 33 32 30 29 29 28 28 28 28 28 28 28 29 29 29 29 30 30 30 30 30 30 30 30 31 31 32 32 33 33 34 35 35 36 37 37 37 38 38 39 39 39 40 41 42 43 44 45 45 46 47 47 48 49 50 50 51
43 43 43 43 44 44 45 45 45 45 44 43 42 42 41 41 40 39 39 38 37 37 36 35 35 34 33 32 31 30 29 28 28 27 27 27 27 27 28 28 28 29 29 29 30 30 30 30 30 31 31 31 31 31 32 33 33 34 34 35 36 36 37 38 38 39 39 39 40 40 41 42 42 43 44 45 45 46 47 47 48 49 49 50 51 52
41 42 42 43 43 44 44 44 43 43 42 41 40 40 39 39 38 38 37 36 36 35 34 33 32 32 31 30 29 29 28 27 27 26 26 27 27 27 28 28 29 29 29 30 30 30 31 31 31 31 31 31 32 32 33 33 34 35 35 36 37 37 38 39 39 39 40 40 41 42 42 43 43 44 45 45 46 47 48 48 49 49 50 51 52 52
Wind_Direction
287 287 288 289 289 290 290 291 292 292 293 294 294 295 295 295 296 296 296 296 296 297 297 297 298 298 298 298 299 299 300 300 301 301 302 302 303 303 304 304 305 305 306 306 306 307 307 308 308 308 308 309 309 309 309 309 308 308 308 307 307 307 306 306 306 305 305 304 304 304 303 303 302 302 301 301 300 300 299 298 297 296 294 292 290 288
287 287 288 289 289 290 290 291 292 292 293 293 294 294 294 295 295 295 295 295 296 296 296 296 297 297 297 298 298 298 299 300 300 301 301 302 302 303 303 304 304 304 305 305 306 306 306 307 307 307 307 308 308 308 308 308 307 307 307 306 306 306 305 305 305 304 304 303 303 303 302 302 301 301 300 300 299 298 298 297 296 294 293 290 288 285
286 287 288 288 289 290 290 291 291 292 292 293 293 293 293 293 294 294 294 294 295 295 295 295 296 296 296 297 297 298 299 299 300 300 301 301 302 302 303 303 303 304 304 305 305 305 306 306 306 306 307 307 307 307 307 306 306 306 306 305 305 305 304 304 304 303 303 302 302 301 301 301 300 300 299 298 298 297 296 295 294 293 291 289 286 283
286 287 287 288 288 289 289 290 290 291 291 291 291 291 292 292 292 292 293 293 293 294 294 295 295 296 296 297 297 298 298 299 299 300 300 301 301 301 302 302 303 303 304 304 304 304 305 305 305 305 306 306 306 306 306 305 305 305 305 304 304 304 303 303 303 302 302 301 301 300 300 300 299 299 298 297 297 296 295 294 292 291 289 287 284 281
285 286 286 287 287 288 288 288 289 289 289 289 290 290 290 291 291 291 292 292 293 293 294 294 295 295 296 296 297 297 298 298 299 299 300 300 300 301 301 302 302 302 303 303 303 304 304 304 304 305 305 305 305 305 304 304 304 304 303 303 303 303 302 302 302 301 301 300 300 299 299 299 298 297 297 296 295 294 293 292 291 289 287 285 282 279
284 285 285 286 286 286 287 287 287 287 288 288 288 289 289 290 290 291 291 292 292 293 293 294 294 295 295 296 296 297 297 298 298 298 299 299 300 300 301 301 301 302 302 302 302 303 303 303 303 304 304 304 304 304 303 303 303 303 302 302 302 302 301 301 301 300 300 299 299 298 298 298 297 296 295 295 294 293 292 291 289 287 285 283 280 277
283 283 284 284 284 285 285 285 286 286 287 287 288 288 289 289 290 290 291 291 292 292 293 293 294 294 295 295 296 296 297 297 298 298 298 299 299 299 300 300 300 301 301 301 302 302 302 302 303 303 303 303 303 302 302 302 302 302 301 301 301 301 300 300 300 299 299 298 298 297 297 296 296 295 294 293 292 291 290 289 287 285 283 281 278 275
281 282 282 282 283 283 284 284 284 285 285 286 287 287 288 289 289 290 290 291 291 292 292 293 293 294 294 295 295 296 296 296 297 297 297 298 298 298 299 299 299 300 300 300 301 301 301 302 302 302 302 302 301 301 301 301 301 301 300 300 300 300 299 299 299 298 298 298 297 296 296 295 294 294 293 292 291 290 289 287 285 283 281 278 276 273
280 280 281 281 281 282 282 283 283 284 284 285 286 286 287 288 288 289 289 290 291 291 292 292 293 293 294 294 294 295 295 296 296 296 297 297 297 298 298 298 299 299 299 300 300 300 301 301 301 301 301 300 300 300 300 300 300 300 299 299 299 299 298 298 298 297 297 297 296 295 295 294 293 293 292 291 290 288 287 285 283 281 279 276 273 271
278 279 279 280 281 281 282 282 283 283 284 284 285 286 286 287 288 288 289 289 290 291 291 292 292 292 293 293 293 294 294 295 295 295 296 296 296 297 297 298 298 298 299 299 300 300 300 300 300 300 299 299 299 299 299 299 299 299 299 298 298 298 298 297 297 297 296 296 295 294 294 293 292 291 290 289 288 287 285 283 281 279 276 274 271 269
278 278 279 280 281 281 282 282 283 283 284 284 285 285 286 286 287 288 288 289 289 290 290 291 291 291 292 292 292 293 293 294 294 294 295 295 296 296 297 297 298 298 298 299 299 299 299 299 299 298 298 298 298 298 298 298 298 298 298 297 297 297 297 296 296 296 295 294 294 293 292 292 291 290 289 288 287 285 283 281 279 277 274 271 269 267
278 278 279 280 281 281 282 282 283 283 284 284 285 285 285 286 286 287 288 288 289 289 289 290 290 290 291 291 292 292 292 293 293 294 294 295 295 296 296 297 297 297 298 298 298 298 298 298 298 298 298 298 298 298 298 297 297 297 297 297 296 296 296 295 295 294 294 293 292 292 291 290 290 289 288 287 285 283 281 279 277 274 272 269 267 265
278 278 279 280 281 281 282 282 283 283 283 284 284 285 285 286 286 286 287 287 288 288 288 289 289 290 290 290 291 291 292 292 293 293 294 294 295 296 296 296 296 297 297 297 297 297 297 297 297 297 297 297 297 297 297 297 296 296 296 296 295 295 295 294 294 293 293 292 291 291 290 289 289 288 286 285 283 282 279 277 275 272 270 267 265 263
278 279 280 280 281 281 282 282 283 283 283 284 284 284 285 285 285 286 286 287 287 287 288 288 289 289 289 290 290 291 291 292 292 293 294 294 295 295 295 296 296 296 296 296 296 296 296 296 296 296 296 296 296 296 296 296 295 295 295 295 295 294 294 293 292 292 291 291 290 289 289 288 287 286 285 283 282 280 277 275 273 270 268 265 263 261
279 279 280 280 281 281 282 282 282 283 283 283 284 284 284 285 285 285 286 286 287 287 287 288 288 289 289 290 290 291 291 292 292 293 293 294 294 294 295 295 295 295 295 295 295 295 295 295 295 295 295 295 295 295 295 295 295 294 294 294 293 293 292 292 291 291 290 289 289 288 287 287 286 284 283 281 280 278 275 273 271 268 266 264 262 260
279 279 280 280 281 281 281 282 282 282 283 283 283 284 284 284 285 285 285 286 286 287 287 288 288 288 289 289 290 290 291 291 292 293 293 293 293 294 294 294 294 294 294 294 294 294 294 295 295 295 295 295 295 295 294 294 294 293 293 293 292 292 291 291 290 289 289 288 288 287 286 285 284 282 281 279 278 275 273 271 268 266 264 262 260 259
279 279 279 280 280 280 281 281 281 282 282 282 283 283 284 284 284 285 285 286 286 286 287 287 288 288 289 289 290 290 291 291 292 292 292 292 293 293 293 293 293 293 293 293 293 294 294 294 294 294 294 294 294 294 293 293 293 292 292 292 291 291 290 290 289 288 288 287 286 286 284 283 282 281 279 277 275 273 271 268 266 264 262 260 259 257
278 278 279 279 279 280 280 281 281 281 282 282 283 283 283 284 284 284 285 285 286 286 287 287 288 288 289 289 290 290 291 291 291 292 292 292 292 292 292 292 292 292 292 293 293 293 293 293 293 293 293 293 293 293 292 292 292 291 291 291 290 290 289 289 288 287 287 286 285 284 283 282 280 279 277 275 273 271 269 266 264 262 260 259 257 256
278 278 278 279 279 280 280 280 281 281 282 282 282 283 283 283 284 284 285 285 285 286 286 287 287 288 288 289 289 290 291 291 291 291 291 291 291 291 292 292 292 292 292 292 292 293 293 293 293 293 292 292 292 292 291 291 291 290 290 290 289 289 288 288 287 286 286 285 284 282 281 280 278 277 275 273 271 269 266 264 262 260 259 257 256 255
278 278 278 279 279 279 280 280 280 281 281 281 282 282 283 283 283 284 284 285 285 286 286 287 287 288 288 289 289 290 290 290 290 290 290 290 291 291 291 291 291 291 292 292 292 292 292 292 292 292 291 291 291 291 290 290 290 289 289 289 288 288 287 287 286 285 284 283 282 281 279 278 277 275 273 271 269 266 264 262 260 259 258 256 255 255
278 278 278 279 279 279 279 280 280 280 281 281 282 282 282 283 283 284 284 285 285 286 286 287 287 287 288 288 289 289 290 290 290 290 290 290 290 290 290 291 291 291 291 291 292 292 291 291 291 291 290 290 290 290 290 289 289 289 288 288 288 287 287 286 285 284 283 281 280 279 278 276 275 273 271 269 266 264 262 260 259 258 256 256 255 254
277 278 278 278 279 279 279 279 280 280 281 281 281 282 282 283 283 283 284 285 285 285 286 286 287 287 288 288 288 289 289 289 289 289 289 289 289 290 290 290 290 291 291 291 291 291 290 290 290 290 289 289 289 289 289 289 288 288 288 287 287 286 286 285 283 282 281 280 278 277 276 274 272 271 269 266 264 262 260 259 258 257 256 255 255 254
277 278 278 278 279 279 279 279 280 280 280 281 281 282 282 283 283 284 284 285 285 285 286 286 287 287 287 288 288 288 288 288 288 289 289 289 289 289 290 290 290 290 290 290 290 289 289 289 289 289 289 289 288 288 288 288 288 287 287 287 286 285 284 283 282 281 279 278 277 276 274 272 271 269 266 264 262 261 259 258 257 257 256 256 255 255
278 278 278 278 279 279 279 279 280 280 281 281 281 282 282 283 283 284 284 284 285 285 286 286 286 287 287 287 287 288 288 288 288 288 288 288 288 289 289 289 289 289 289 289 288 288 288 288 288 288 288 288 288 288 288 288 287 287 286 286 285 284 283 282 280 279 278 277 275 274 272 271 269 267 265 263 262 260 259 259 258 257 257 257 256 256
278 278 278 278 279 279 279 280 280 280 281 281 282 282 283 283 283 284 284 284 285 285 286 286 286 286 287 287 287 287 287 287 287 287 287 288 288 288 289 289 288 288 288 288 287 287 287 287 288 288 288 288 288 287 287 287 287 286 285 284 283 282 281 280 279 278 276 275 274 272 271 269 268 266 265 263 262 261 260 259 258 258 258 257 257 257
278 278 278 279 279 279 280 280 280 281 281 282 282 282 283 283 284 284 284 284 285 285 285 286 286 286 286 286 286 286 286 286 286 286 286 287 287 288 288 288 287 287 286 286 287 287 287 287 287 287 287 287 287 287 287 286 286 285 284 283 282 281 280 278 277 276 275 274 272 271 270 268 267 265 264 263 262 261 260 259 258 258 257 257 257 257
278 278 279 279 279 280 280 280 281 281 281 282 282 282 283 283 283 284 284 284 285 285 285 286 286 286 286 286 286 285 285 285 285 286 286 286 286 286 286 286 286 286 285 286 286 286 287 287 287 287 287 287 287 287 286 285 285 284 283 282 280 279 278 277 276 275 274 272 271 270 268 267 266 264 263 261 260 259 258 257 257 256 256 256 256 256
278 279 279 279 280 280 280 281 281 281 282 282 282 283 283 283 283 284 284 284 285 285 285 285 285 285 285 285 285 285 285 284 285 285 285 285 285 285 285 285 285 285 285 285 286 286 286 286 287 287 287 287 286 286 285 284 284 282 281 280 279 278 277 276 274 273 272 271 269 268 266 265 263 262 260 259 258 257 256 255 255 255 254 254 254 254
278 279 279 279 280 280 280 281 281 281 282 282 282 282 283 283 283 283 284 284 284 284 284 284 284 284 284 284 284 284 284 284 284 284 285 284 284 284 284 284 284 285 285 285 286 286 286 286 286 286 286 286 286 285 284 283 282 281 280 279 278 276 275 274 273 271 270 268 267 265 264 262 261 259 258 257 256 255 254 254 253 253 253 253 253 253
278 279 279 279 280 280 280 281 281 281 281 282 282 282 282 283 283 283 283 284 284 284 284 283 283 283 283 283 283 283 283 283 283 283 283 283 283 283 284 284 284 285 285 285 286 286 286 286 286 286 285 285 284 283 283 282 281 279 278 277 276 275 274 272 271 269 267 266 264 262 260 259 257 256 255 254 254 253 252 252 252 252 252 252 252 252
278 279 279 279 280 280 280 281 281 281 281 282 282 282 282 282 282 283 283 283 283 283 283 283 282 282 282 282 282 282 282 282 283 283 282 282 282 283 283 284 284 285 285 285 285 286 286 286 285 285 284 284 283 282 281 280 279 278 277 276 274 273 271 270 268 266 264 262 261 259 257 256 255 254 253 252 252 251 251 251 251 251 251 251 251 251
278 279 279 279 280 280 280 280 281 281 281 281 282 282 282 282 282 282 282 282 282 282 282 281 281 281 281 281 281 281 282 282 282 282 282 282 282 283 283 284 284 285 285 285 285 285 285 285 285 284 283 282 281 281 280 279 278 276 275 274 272 271 269 267 265 263 261 260 258 257 255 254 253 252 252 251 251 250 250 250 250 250 250 251 252 252
278 278 279 279 279 280 280 280 280 281 281 281 281 281 282 282 282 282 282 282 281 281 281 280 280 280 280 280 280 280 281 281 281 281 281 282 282 283 283 284 284 284 285 285 285 284 284 284 283 283 282 281 280 279 278 277 276 275 273 272 270 268 266 264 262 261 259 258 257 256 255 254 253 252 252 251 251 251 251 251 251 251 252 252 253 254
277 278 278 279 279 279 279 280 280 280 280 281 281 281 281 281 281 281 281 281 280 280 280 279 279 279 279 279 279 279 280 280 280 281 281 282 282 283 283 283 284 284 284 284 284 284 283 283 282 282 281 280 279 277 276 275 274 273 271 270 268 266 264 262 260 259 258 257 256 255 255 254 254 253 253 253 253 253 253 253 253 254 254 255 256 257
276 277 277 278 278 278 279 279 279 279 280 280 280 280 280 280 280 280 280 279 279 279 279 278 278 278 278 278 278 279 279 279 280 281 281 282 282 282 283 283 283 283 283 283 283 283 282 281 281 280 280 279 277 276 274 273 272 271 269 267 265 263 262 260 259 257 257 256 255 255 255 255 255 255 255 255 255 255 256 256 256 257 257 258 258 259
275 276 276 277 277 277 278 278 278 278 279 279 279 279 279 279 279 279 279 278 278 278 277 277 277 277 277 277 277 278 279 280 280 281 281 281 281 282 282 282 282 282 282 282 281 281 281 280 279 279 278 277 276 274 272 271 270 268 267 265 263 262 260 259 258 257 256 255 255 255 255 255 255 256 256 256 257 257 258 258 259 259 260 260 261 261
274 275 275 275 276 276 276 277 277 277 277 277 278 278 278 278 278 277 277 277 276 276 276 276 276 276 276 276 277 278 278 279 280 280 281 281 281 281 281 281 281 281 281 280 280 279 279 278 278 277 276 275 273 272 270 269 267 265 264 262 261 260 259 258 258 257 256 255 255 255 255 256 256 256 257 258 258 259 259 260 260 260 261 261 261 262
273 273 274 274 274 275 275 275 275 275 275 276 276 276 276 276 276 276 275 275 275 274 274 274 275 275 275 276 277 277 278 279 279 280 280 280 280 281 281 280 280 279 279 279 278 278 277 276 275 275 274 272 271 269 268 266 264 263 261 261 260 259 258 257 257 257 256 256 256 256 256 257 257 258 258 259 259 260 260 260 261 261 261 262 262 262
272 272 272 273 273 273 273 273 273 274 274 274 275 275 275 274 274 274 274 273 273 273 273 274 274 275 275 276 277 277 278 278 279 279 279 280 280 280 279 279 279 278 278 277 276 276 275 274 273 272 271 270 269 267 265 264 262 261 260 259 258 258 257 257 257 256 256 256 257 257 258 258 259 259 259 260 260 260 260 261 261 261 262 262 263 263
271 271 271 271 271 271 271 272 272 272 273 273 273 273 273 273 272 272 272 272 272 272 273 273 274 275 275 276 276 277 277 277 278 278 278 278 278 278 278 278 277 277 276 276 275 274 273 272 271 270 269 268 266 265 264 262 261 259 258 257 257 256 257 257 257 257 257 257 258 258 259 259 260 260 260 261 261 261 261 262 262 263 263 264 265 265
269 269 269 269 270 270 270 270 271 271 271 271 271 271 271 271 271 271 271 271 271 272 272 273 274 274 275 275 276 276 276 277 277 277 277 277 277 277 277 276 276 275 275 274 273 272 271 271 270 268 267 266 265 264 263 261 260 259 258 258 258 258 258 258 258 258 258 258 259 259 260 260 260 261 261 262 262 262 263 263 264 265 265 266 267 267
267 267 267 268 268 268 268 269 269 269 270 269 269 269 269 269 269 269 270 270 271 271 272 273 273 274 274 275 275 275 275 275 276 276 276 276 276 275 275 275 274 274 273 273 272 271 270 269 268 267 266 265 265 264 263 261 260 260 259 260 260 260 260 260 260 259 259 260 260 260 261 261 262 262 263 263 264 265 265 266 267 267 268 268 269 269
266 266 266 266 266 267 267 267 268 268 268 267 267 267 268 268 268 269 269 270 271 271 272 273 273 273 274 274 274 274 274 274 274 274 274 274 274 274 274 273 273 272 272 271 270 270 269 267 267 266 265 264 264 263 262 261 261 260 261 261 262 262 262 261 261 261 261 261 261 262 262 263 263 264 265 266 267 267 268 269 269 270 270 270 271 271
264 264 264 265 265 265 265 266 266 266 266 266 266 266 266 267 267 268 269 269 270 271 272 272 272 272 272 273 273 273 273 273 273 273 273 273 272 272 272 272 271 270 270 269 269 268 268 267 266 265 264 263 262 262 261 261 261 261 261 262 263 263 263 263 263 263 262 263 263 264 264 265 266 267 267 268 269 270 270 270 271 271 272 272 272 272
262 262 263 263 263 263 263 263 264 264 264 264 264 265 265 266 267 267 268 269 270 270 271 271 271 271 271 271 271 271 271 272 271 271 271 271 271 271 270 270 269 268 268 267 267 267 266 266 265 263 262 261 261 260 260 261 261 262 262 263 263 263 264 264 264 264 264 265 265 266 267 267 268 269 269 270 270 271 271 272 272 272 273 273 273 274
260 261 261 261 262 261 262 262 262 262 262 262 263 264 265 265 266 267 268 268 269 270 270 270 270 270 270 270 270 270 270 270 270 270 270 270 270 269 268 268 267 266 265 265 264 264 263 263 262 262 261 260 260 260 260 261 262 263 263 264 264 265 265 265 265 266 266 267 267 268 268 269 269 270 270 271 271 271 272 272 273 273 274 274 274 275
259 259 259 260 260 260 260 260 260 260 261 261 262 263 264 265 266 267 267 268 268 268 268 268 268 268 268 268 268 269 269 269 269 269 269 268 268 267 266 265 264 263 262 262 262 261 261 260 260 259 259 259 259 259 260 261 262 263 264 265 265 266 266 266 267 267 268 268 268 269 269 270 270 270 270 271 271 272 272 272 273 274 274 275 276 276
257 257 258 258 258 258 258 258 258 259 260 261 262 263 264 264 265 266 266 266 266 266 266 267 267 266 267 267 267 267 267 268 268 267 267 266 265 264 263 262 261 261 260 259 259 259 258 258 258 258 258 258 259 260 261 261 262 263 265 265 266 267 267 268 268 268 269 269 269 270 270 270 270 270 271 271 272 272 272 273 274 274 275 276 277 278
255 256 256 256 256 256 256 257 257 258 259 260 261 262 263 263 264 264 264 265 265 265 265 265 265 265 265 265 265 265 265 265 264 264 263 263 262 261 260 259 259 258 258 258 258 257 257 257 257 257 257 258 259 260 261 262 263 264 265 266 267 267 268 269 269 269 270 270 270 271 271 271 271 271 272 272 272 273 273 274 275 276 276 277 278 279
254 254 254 254 254 255 255 256 257 257 259 260 260 261 262 262 262 262 263 263 263 263 263 263 263 263 263 263 263 263 262 261 261 260 259 259 258 258 257 257 257 257 257 257 257 257 257 257 257 257 257 258 259 261 262 263 264 265 265 266 267 268 268 269 270 270 271 271 271 271 271 272 272 272 273 273 274 274 275 276 276 277 278 279 279 280
252 252 252 252 253 253 254 255 256 257 258 259 259 260 260 260 260 260 261 261 261 261 261 261 261 261 260 260 260 259 258 258 257 256 255 255 255 255 255 255 255 256 256 256 256 256 256 256 257 257 258 258 259 260 262 263 264 265 266 266 267 268 269 269 270 271 271 272 272 272 273 273 273 274 274 275 276 276 277 278 278 279 280 280 281 282
Height
10561 10559 10558 10558 10557 10556 10554 10552 10551 10551 10551 10549 10548 10548 10548 10548 10546 10544 10543 10542 10541 10540 10539 10538 10537 10536 10534 10533 10531 10530 10528 10526 10524 10523 10521 10520 10519 10518 10517 10516 10514 10513 10511 10508 10506 10504 10502 10500 10498 10496 10494 10493 10491 10489 10486 10484 10482 10480 10478 10476 10474 10472 10470 10468 10465 10463 10461 10460 10459 10458 10457 10456 10454 10453 10451 10450 10449 10447 10446 10446 10445 10445 10444 10444 10443 10443
10554 10553 10551 10550 10549 10548 10546 10544 10543 10544 10544 10542 10541 10540 10540 10540 10539 10538 10537 10536 10535 10534 10534 10533 10532 10531 10529 10528 10526 10524 10523 10521 10519 10517 10516 10514 10513 10512 10511 10509 10508 10506 10504 10503 10501 10498 10496 10494 10493 10491 10489 10487 10485 10483 10480 10478 10476 10474 10472 10470 10468 10466 10464 10462 10460 10458 10456 10455 10454 10453 10451 10451 10449 10448 10446 10445 10444 10443 10442 10441 10441 10441 10440 10439 10439 10439
10548 10546 10544 10543 10542 10541 10540 10538 10537 10537 10537 10536 10536 10534 10534 10534 10533 10533 10531 10531 10530 10529 10528 10528 10527 10526 10524 10522 10521 10519 10518 10516 10513 10511 10510 10508 10507 10506 10504 10503 10502 10501 10499 10497 10495 10493 10491 10489 10487 10484 10483 10481 10479 10476 10474 10472 10469 10468 10466 10464 10462 10460 10458 10456 10455 10453 10451 10450 10449 10448 10446 10446 10444 10443 10442 10441 10439 10438 10438 10437 10436 10436 10436 10435 10435 10434
10542 10541 10538 10536 10536 10536 10534 10534 10533 10533 10531 10531 10530 10529 10529 10529 10528 10527 10526 10526 10525 10524 10523 10521 10521 10519 10518 10516 10514 10513 10511 10509 10508 10506 10504 10503 10501 10499 10498 10497 10496 10494 10493 10491 10489 10487 10485 10483 10481 10479 10476 10474 10473 10471 10468 10466 10463 10461 10459 10458 10456 10454 10453 10451 10449 10448 10446 10445 10444 10443 10441 10441 10439 10438 10438 10436 10435 10434 10433 10433 10432 10431 10431 10431 10431 10431
10536 10536 10534 10532 10531 10530 10529 10529 10529 10528 10527 10526 10524 10524 10523 10523 10522 10521 10520 10519 10519 10518 10516 10515 10514 10513 10512 10510 10508 10507 10505 10504 10502 10500 10498 10496 10495 10493 10492 10491 10489 10488 10486 10485 10483 10481 10479 10477 10475 10473 10471 10468 10466 10464 10462 10459 10458 10456 10453 10451 10450 10448 10447 10445 10444 10443 10441 10440 10439 10438 10436 10436 10434 10434 10433 10431 10430 10429 10428 10428 10428 10427 10427 10427 10426 10426
10529 10529 10529 10527 10526 10524 10523 10523 10523 10523 10521 10519 10518 10517 10517 10516 10516 10514 10513 10512 10511 10511 10509 10508 10507 10506 10505 10504 10502 10501 10499 10497 10496 10494 10492 10491 10489 10488 10486 10484 10483 10482 10480 10479 10477 10475 10473 10471 10469 10466 10464 10462 10460 10458 10456 10454 10452 10449 10448 10446 10444 10443 10441 10440 10438 10437 10436 10434 10433 10433 10431 10430 10429 10429 10428 10427 10426 10425 10424 10423 10423 10423 10423 10423 10422 10422
10524 10524 10523 10521 10520 10518 10518 10517 10517 10516 10515 10514 10512 10510 10509 10509 10508 10508 10506 10505 10504 10503 10503 10501 10500 10499 10498 10498 10496 10494 10493 10491 10489 10488 10486 10484 10483 10481 10480 10479 10477 10476 10474 10472 10470 10468 10466 10464 10462 10460 10458 10456 10454 10451 10449 10448 10446 10444 10442 10440 10438 10437 10436 10434 10433 10432 10431 10429 10428 10427 10426 10425 10424 10424 10423 10422 10421 10420 10419 10419 10419 10418 10418 10418 10418 10418
10518 10518 10516 10514 10514 10513 10512 10511 10509 10509 10509 10508 10506 10504 10502 10501 10501 10500 10499 10498 10498 10497 10496 10495 10494 10492 10491 10491 10489 10488 10486 10484 10483 10481 10480 10478 10477 10476 10474 10473 10471 10469 10468 10466 10464 10462 10459 10458 10456 10453 10451 10449 10448 10445 10443 10442 10440 10438 10436 10434 10433 10431 10430 10429 10428 10426 10425 10424 10423 10422 10421 10420 10419 10419 10418 10417 10416 10416 10415 10414 10414 10414 10414 10414 10414 10414
10512 10511 10509 10508 10507 10506 10506 10505 10503 10501 10502 10503 10501 10499 10497 10495 10494 10492 10491 10491 10490 10490 10489 10489 10488 10485 10484 10483 10483 10482 10481 10479 10477 10475 10474 10473 10471 10469 10468 10466 10464 10463 10461 10459 10457 10455 10453 10451 10449 10447 10444 10443 10441 10439 10438 10436 10434 10432 10430 10429 10427 10426 10424 10423 10422 10421 10419 10418 10418 10416 10416 10415 10414 10414 10413 10413 10412 10411 10411 10410 10410 10409 10409 10409 10409 10410
10504 10504 10503 10501 10500 10499 10499 10498 10496 10494 10494 10494 10494 10493 10491 10489 10488 10486 10484 10483 10482 10482 10483 10483 10481 10479 10478 10476 10476 10475 10474 10473 10471 10469 10468 10466 10465 10463 10462 10460 10458 10456 10454 10452 10450 10448 10446 10444 10442 10440 10438 10436 10434 10433 10431 10429 10428 10426 10424 10423 10421 10420 10419 10418 10416 10415 10414 10413 10412 10411 10410 10409 10409 10408 10408 10408 10407 10406 10406 10406 10406 10406 10406 10406 10406 10406
10496 10495 10495 10494 10493 10492 10491 10490 10489 10488 10488 10488 10487 10485 10483 10482 10481 10481 10479 10477 10475 10474 10474 10474 10474 10473 10472 10471 10469 10468 10467 10466 10464 10463 10461 10459 10458 10456 10455 10453 10451 10449 10447 10445 10443 10441 10439 10438 10435 10434 10432 10430 10428 10427 10425 10423 10422 10420 10419 10417 10416 10414 10413 10412 10411 10409 10409 10408 10407 10406 10405 10404 10404 10403 10403 10403 10402 10402 10401 10401 10401 10401 10401 10401 10402 10402
10487 10486 10486 10486 10485 10484 10483 10481 10481 10480 10480 10480 10479 10478 10476 10474 10473 10473 10473 10471 10469 10467 10467 10467 10466 10466 10464 10464 10463 10462 10461 10459 10457 10456 10454 10453 10451 10449 10447 10446 10443 10441 10440 10438 10436 10434 10433 10431 10429 10427 10425 10424 10422 10421 10419 10418 10416 10414 10413 10411 10410 10409 10408 10406 10406 10404 10403 10403 10401 10401 10400 10399 10399 10398 10398 10398 10397 10397 10397 10397 10397 10397 10397 10398 10398 10398
10478 10477 10477 10477 10476 10475 10474 10473 10473 10472 10471 10471 10470 10469 10469 10467 10466 10465 10465 10464 10462 10461 10460 10460 10459 10458 10457 10456 10456 10456 10454 10452 10450 10449 10448 10446 10444 10441 10440 10438 10436 10434 10433 10431 10429 10427 10426 10424 10423 10421 10419 10418 10416 10414 10413 10411 10409 10408 10407 10406 10404 10403 10402 10401 10400 10399 10398 10397 10396 10396 10394 10394 10394 10393 10393 10393 10393 10393 10393 10393 10393 10393 10393 10393 10394 10394
10468 10467 10468 10468 10467 10466 10464 10464 10464 10463 10463 10461 10461 10461 10461 10459 10458 10458 10457 10456 10454 10453 10453 10453 10452 10451 10449 10449 10448 10448 10446 10445 10443 10442 10441 10439 10436 10434 10433 10431 10429 10427 10426 10424 10422 10420 10419 10418 10416 10414 10413 10411 10409 10408 10407 10405 10404 10403 10401 10400 10399 10398 10397 10396 10395 10394 10393 10392 10391 10391 10389 10389 10389 10388 10388 10388 10388 10388 10388 10388 10388 10388 10389 10389 10390 10390
10457 10457 10458 10458 10456 10455 10454 10454 10455 10454 10453 10452 10452 10453 10453 10451 10450 10449 10449 10448 10447 10445 10444 10444 10444 10443 10441 10440 10440 10440 10439 10438 10436 10434 10433 10431 10429 10427 10426 10424 10422 10420 10419 10418 10416 10414 10413 10411 10409 10408 10406 10405 10404 10402 10401 10399 10398 10396 10395 10394 10393 10393 10392 10391 10390 10389 10388 10387 10386 10386 10385 10384 10384 10383 10383 10383 10383 10383 10383 10384 10384 10384 10384 10385 10386 10386
10446 10447 10447 10447 10446 10445 10444 10444 10445 10445 10444 10443 10443 10443 10443 10442 10441 10440 10440 10439 10439 10438 10436 10436 10435 10434 10432 10431 10431 10432 10432 10431 10429 10427 10426 10424 10421 10419 10419 10418 10416 10413 10412 10411 10409 10407 10406 10405 10403 10402 10400 10399 10398 10396 10394 10393 10392 10391 10390 10389 10388 10387 10386 10386 10384 10384 10383 10382 10381 10381 10380 10379 10379 10379 10379 10379 10379 10379 10379 10379 10380 10380 10381 10381 10382 10383
10437 10437 10437 10436 10436 10435 10434 10434 10435 10435 10434 10434 10434 10433 10433 10433 10432 10431 10431 10431 10429 10429 10428 10427 10426 10426 10424 10423 10422 10422 10423 10423 10422 10420 10418 10416 10414 10413 10412 10411 10409 10407 10405 10404 10403 10401 10400 10398 10397 10395 10394 10393 10391 10390 10389 10388 10386 10385 10384 10384 10383 10382 10381 10380 10379 10378 10378 10377 10376 10376 10375 10375 10374 10374 10374 10374 10374 10375 10375 10376 10376 10376 10377 10378 10378 10379
10428 10427 10426 10427 10426 10426 10425 10425 10425 10425 10424 10424 10424 10424 10423 10423 10423 10423 10422 10422 10421 10421 10419 10419 10418 10418 10416 10415 10413 10413 10414 10416 10414 10412 10410 10408 10406 10405 10406 10404 10403 10400 10398 10397 10396 10394 10393 10392 10391 10389 10388 10386 10385 10384 10383 10382 10381 10380 10379 10378 10378 10377 10376 10375 10374 10373 10373 10372 10371 10371 10371 10370 10370 10370 10370 10370 10370 10371 10371 10371 10372 10373 10373 10374 10374 10375
10418 10417 10417 10417 10417 10417 10416 10416 10416 10415 10415 10415 10414 10414 10414 10414 10414 10413 10413 10413 10413 10412 10412 10411 10410 10409 10408 10407 10406 10406 10407 10408 10407 10404 10402 10400 10399 10398 10398 10398 10396 10393 10392 10391 10389 10388 10387 10386 10384 10383 10381 10380 10379 10378 10377 10376 10375 10374 10374 10373 10372 10371 10371 10369 10369 10368 10368 10367 10366 10366 10366 10366 10366 10366 10366 10366 10366 10367 10367 10368 10368 10369 10369 10370 10371 10372
10408 10408 10407 10408 10408 10408 10408 10406 10406 10406 10406 10406 10406 10406 10406 10406 10405 10405 10404 10404 10404 10404 10404 10403 10403 10401 10400 10399 10398 10398 10399 10400 10399 10396 10394 10393 10391 10391 10391 10391 10389 10386 10385 10384 10383 10382 10381 10379 10378 10376 10376 10374 10374 10373 10371 10371 10370 10369 10368 10368 10367 10366 10365 10364 10364 10363 10363 10362 10362 10361 10361 10361 10361 10361 10362 10362 10363 10363 10363 10364 10364 10365 10366 10366 10367 10368
10398 10398 10397 10398 10399 10399 10399 10397 10396 10397 10398 10398 10398 10398 10397 10397 10397 10397 10396 10396 10396 10396 10396 10396 10394 10394 10393 10392 10391 10391 10392 10392 10391 10388 10387 10386 10384 10383 10384 10383 10382 10380 10378 10377 10376 10376 10374 10373 10371 10371 10369 10369 10368 10367 10366 10365 10364 10364 10363 10362 10361 10361 10360 10359 10359 10358 10358 10358 10357 10357 10357 10357 10357 10358 10358 10358 10358 10359 10359 10360 10361 10361 10362 10363 10364 10364
10388 10388 10388 10388 10389 10389 10389 10388 10388 10388 10389 10389 10389 10389 10389 10389 10389 10389 10389 10389 10389 10389 10388 10388 10387 10386 10386 10385 10384 10384 10384 10384 10383 10381 10379 10378 10376 10376 10376 10377 10376 10374 10372 10371 10370 10369 10368 10366 10366 10364 10364 10363 10363 10361 10361 10360 10359 10359 10358 10357 10356 10356 10355 10354 10354 10353 10353 10353 10353 10353 10353 10353 10353 10353 10354 10354 10354 10355 10356 10356 10357 10358 10358 10359 10360 10361
10379 10379 10379 10379 10379 10380 10379 10379 10379 10379 10379 10380 10381 10381 10381 10381 10381 10381 10381 10381 10381 10381 10381 10380 10379 10379 10379 10378 10377 10377 10377 10376 10376 10374 10373 10371 10369 10369 10369 10370 10369 10367 10366 10364 10364 10363 10362 10361 10359 10359 10358 10358 10357 10356 10356 10355 10354 10353 10353 10352 10351 10350 10349 10349 10349 10349 10348 10348 10348 10348 10348 10349 10349 10349 10350 10350 10351 10351 10352 10353 10353 10354 10355 10356 10357 10358
10370 10370 10370 10370 10371 10371 10371 10371 10371 10371 10371 10372 10373 10373 10373 10374 10374 10374 10374 10374 10374 10374 10373 10373 10373 10372 10371 10371 10370 10369 10369 10369 10368 10367 10366 10364 10363 10363 10363 10363 10362 10361 10359 10359 10358 10357 10356 10354 10354 10354 10353 10353 10352 10351 10350 10349 10349 10348 10348 10347 10346 10346 10345 10344 10344 10344 10344 10344 10344 10344 10344 10345 10345 10346 10346 10346 10347 10348 10349 10349 10350 10351 10352 10353 10354 10354
10361 10361 10362 10362 10362 10363 10363 10363 10363 10363 10364 10364 10365 10365 10366 10366 10366 10366 10366 10366 10366 10366 10366 10366 10366 10364 10363 10363 10363 10362 10361 10362 10361 10360 10359 10358 10356 10356 10356 10357 10356 10354 10353 10352 10352 10351 10350 10349 10348 10348 10348 10347 10346 10346 10345 10344 10344 10343 10343 10342 10341 10341 10340 10340 10339 10339 10339 10339 10340 10340 10341 10341 10341 10342 10343 10343 10344 10345 10346 10346 10348 10348 10349 10350 10351 10352
10353 10353 10354 10354 10354 10354 10355 10355 10356 10356 10356 10357 10357 10358 10358 10358 10358 10359 10359 10358 10358 10359 10359 10359 10358 10357 10356 10356 10356 10355 10354 10354 10354 10354 10353 10352 10351 10350 10350 10351 10350 10348 10347 10346 10346 10345 10344 10344 10343 10343 10343 10342 10341 10341 10340 10339 10339 10338 10338 10337 10336 10336 10336 10336 10336 10335 10336 10336 10336 10336 10337 10338 10338 10339 10339 10340 10341 10342 10343 10344 10344 10346 10346 10347 10348 10349
10345 10346 10346 10346 10346 10347 10348 10348 10348 10348 10349 10349 10350 10350 10351 10351 10351 10351 10351 10351 10351 10352 10352 10351 10351 10350 10349 10349 10349 10348 10348 10348 10348 10347 10347 10346 10345 10344 10344 10344 10344 10343 10341 10340 10340 10340 10339 10338 10338 10338 10337 10336 10336 10336 10335 10334 10334 10333 10333 10333 10332 10332 10331 10331 10331 10331 10331 10332 10332 10333 10333 10334 10334 10335 10336 10337 10338 10339 10340 10341 10342 10343 10343 10344 10345 10346
10338 10338 10338 10339 10339 10339 10340 10341 10341 10341 10342 10342 10343 10343 10344 10344 10344 10344 10343 10344 10344 10345 10345 10344 10344 10343 10343 10343 10342 10342 10342 10341 10341 10341 10341 10341 10339 10338 10338 10338 10338 10337 10336 10335 10334 10334 10334 10333 10333 10333 10332 10331 10331 10330 10330 10329 10329 10329 10328 10328 10328 10328 10328 10328 10328 10328 10328 10328 10329 10329 10330 10331 10331 10332 10333 10334 10334 10336 10337 10338 10338 10339 10340 10341 10342 10343
10330 10331 10331 10331 10332 10333 10333 10333 10334 10334 10335 10335 10336 10336 10337 10338 10338 10337 10337 10338 10338 10338 10338 10338 10338 10337 10336 10336 10336 10336 10335 10335 10335 10336 10336 10335 10333 10332 10333 10333 10331 10331 10331 10330 10329 10329 10329 10328 10328 10328 10327 10326 10326 10326 10325 10324 10324 10324 10324 10324 10324 10323 10323 10324 10324 10324 10324 10325 10326 10326 10326 10328 10328 10329 10329 10331 10331 10333 10333 10334 10335 10336 10337 10338 10338 10339
10323 10324 10324 10324 10325 10326 10326 10326 10327 10328 10328 10329 10329 10329 10330 10331 10331 10331 10331 10331 10331 10331 10331 10331 10331 10331 10330 10330 10329 10329 10328 10329 10329 10330 10330 10329 10327 10326 10327 10327 10326 10326 10326 10325 10324 10324 10323 10323 10323 10323 10323 10322 10321 10321 10321 10320 10320 10320 10319 10319 10319 10319 10320 10320 10320 10321 10321 10321 10322 10323 10323 10324 10325 10326 10326 10328 10328 10329 10330 10331 10332 10333 10333 10334 10334 10335
10316 10316 10317 10318 10318 10319 10319 10320 10320 10321 10321 10322 10323 10323 10324 10324 10324 10324 10324 10325 10325 10325 10324 10324 10324 10324 10324 10324 10323 10323 10322 10323 10324 10324 10324 10323 10321 10321 10322 10321 10321 10320 10321 10321 10320 10319 10318 10318 10318 10318 10318 10317 10317 10316 10316 10316 10316 10316 10316 10316 10316 10316 10316 10316 10317 10318 10318 10318 10319 10319 10320 10321 10322 10323 10323 10324 10325 10326 10326 10328 10328 10329 10329 10330 10331 10331
10309 10309 10310 10311 10311 10312 10313 10313 10314 10314 10314 10315 10316 10316 10317 10318 10318 10318 10318 10319 10319 10319 10319 10318 10318 10318 10318 10318 10318 10317 10316 10317 10318 10318 10318 10318 10316 10316 10316 10316 10316 10315 10315 10316 10315 10314 10314 10313 10313 10313 10313 10313 10313 10312 10312 10312 10312 10312 10312 10312 10312 10313 10313 10313 10314 10314 10314 10315 10316 10316 10317 10318 10319 10319 10320 10321 10322 10323 10323 10324 10324 10326 10326 10326 10327 10328
10303 10303 10303 10304 10304 10305 10306 10306 10307 10308 10308 10309 10309 10310 10311 10311 10312 10312 10313 10313 10313 10313 10313 10313 10313 10312 10312 10312 10312 10311 10311 10311 10311 10312 10313 10312 10311 10311 10311 10311 10311 10311 10311 10310 10310 10310 10309 10309 10309 10308 10308 10308 10308 10308 10308 10308 10308 10308 10308 10308 10309 10309 10309 10310 10310 10311 10311 10312 10313 10313 10314 10315 10316 10316 10317 10318 10319 10319 10320 10321 10321 10322 10323 10323 10324 10324
10296 10297 10298 10298 10298 10299 10299 10300 10301 10301 10302 10303 10303 10304 10304 10305 10306 10306 10306 10307 10307 10307 10307 10307 10307 10307 10306 10306 10306 10306 10306 10306 10306 10307 10307 10307 10306 10306 10306 10306 10306 10306 10306 10306 10305 10305 10305 10304 10304 10304 10304 10304 10304 10304 10304 10304 10304 10304 10304 10305 10305 10306 10306 10306 10307 10308 10308 10309 10309 10310 10311 10312 10313 10313 10314 10315 10316 10316 10317 10318 10318 10319 10319 10320 10321 10321
10291 10291 10291 10292 10293 10293 10294 10294 10294 10295 10296 10296 10298 10298 10299 10299 10299 10300 10301 10301 10301 10302 10302 10302 10302 10301 10301 10301 10301 10301 10301 10301 10301 10302 10302 10302 10302 10302 10302 10302 10301 10301 10301 10301 10301 10301 10300 10300 10300 10300 10300 10300 10300 10300 10301 10301 10301 10301 10301 10302 10302 10303 10303 10303 10304 10304 10305 10306 10307 10308 10308 10309 10310 10311 10311 10312 10313 10314 10314 10315 10316 10316 10317 10318 10318 10318
10285 10285 10286 10286 10287 10288 10288 10289 10289 10289 10290 10291 10292 10293 10293 10294 10294 10294 10295 10296 10296 10296 10296 10296 10296 10296 10296 10296 10296 10296 10296 10296 10296 10297 10297 10297 10297 10298 10297 10297 10297 10297 10297 10296 10296 10296 10296 10296 10296 10296 10296 10296 10296 10296 10297 10298 10298 10298 10298 10298 10299 10299 10300 10301 10301 10302 10303 10303 10304 10304 10305 10306 10307 10308 10308 10309 10310 10311 10311 10312 10313 10313 10314 10314 10314 10315
10279 10279 10280 10281 10282 10283 10283 10283 10284 10284 10285 10286 10286 10287 10288 10288 10289 10289 10290 10291 10291 10291 10291 10291 10291 10291 10291 10291 10291 10291 10291 10292 10292 10292 10292 10293 10293 10293 10293 10293 10293 10293 10293 10293 10292 10292 10292 10292 10292 10292 10293 10293 10293 10293 10294 10294 10294 10294 10295 10295 10296 10296 10297 10298 10298 10299 10300 10301 10301 10302 10303 10303 10304 10304 10306 10306 10307 10308 10308 10309 10309 10309 10310 10311 10311 10311
10273 10274 10274 10275 10276 10277 10278 10278 10279 10279 10280 10281 10281 10282 10283 10284 10284 10284 10285 10286 10286 10286 10286 10286 10286 10286 10287 10287 10287 10287 10288 10288 10288 10288 10288 10288 10288 10288 10288 10288 10288 10288 10288 10288 10288 10288 10288 10288 10288 10288 10289 10289 10289 10290 10290 10291 10291 10291 10292 10293 10293 10294 10294 10295 10296 10296 10297 10298 10298 10299 10299 10300 10301 10302 10303 10303 10304 10304 10305 10306 10306 10306 10306 10307 10307 10308
10268 10268 10269 10270 10271 10272 10273 10273 10273 10274 10275 10276 10276 10278 10278 10279 10279 10279 10280 10280 10281 10281 10281 10281 10281 10282 10282 10283 10283 10283 10283 10283 10283 10283 10283 10283 10283 10284 10284 10284 10284 10284 10284 10284 10284 10284 10284 10284 10285 10285 10286 10286 10286 10286 10287 10288 10288 10288 10289 10289 10290 10291 10291 10292 10293 10294 10294 10295 10296 10296 10297 10298 10298 10299 10299 10300 10301 10301 10302 10302 10303 10303 10303 10303 10303 10304
10262 10263 10264 10264 10266 10266 10267 10268 10268 10269 10270 10271 10272 10273 10273 10274 10274 10274 10275 10275 10276 10276 10276 10276 10277 10278 10278 10278 10278 10278 10278 10278 10278 10279 10279 10279 10279 10279 10279 10279 10280 10280 10280 10281 10281 10281 10281 10281 10281 10282 10283 10283 10283 10283 10284 10284 10285 10286 10286 10287 10287 10288 10289 10289 10290 10291 10292 10293 10293 10294 10294 10295 10296 10296 10296 10297 10298 10298 10298 10299 10299 10299 10299 10299 10299 10299
10257 10258 10258 10259 10260 10261 10262 10263 10264 10265 10266 10266 10267 10268 10268 10269 10269 10269 10269 10270 10271 10271 10271 10272 10273 10273 10273 10273 10274 10274 10274 10274 10274 10274 10274 10274 10275 10275 10275 10276 10276 10276 10276 10277 10277 10278 10278 10278 10278 10279 10279 10279 10280 10281 10281 10281 10282 10283 10283 10284 10284 10285 10286 10287 10288 10288 10289 10289 10290 10291 10291 10292 10293 10293 10293 10294 10294 10294 10295 10295 10295 10295 10296 10296 10296 10296
10251 10253 10253 10254 10255 10256 10257 10258 10259 10260 10261 10262 10262 10263 10263 10264 10264 10264 10265 10265 10266 10266 10267 10268 10268 10268 10269 10269 10269 10269 10269 10270 10270 10270 10271 10271 10271 10271 10271 10272 10272 10273 10273 10273 10274 10274 10274 10275 10275 10276 10276 10277 10277 10278 10278 10278 10279 10280 10281 10281 10282 10283 10283 10284 10285 10286 10286 10287 10288 10288 10288 10289 10289 10289 10290 10290 10291 10291 10291 10291 10291 10291 10291 10291 10291 10291
10246 10247 10248 10249 10251 10251 10253 10254 10255 10256 10256 10257 10257 10258 10258 10259 10259 10260 10261 10261 10261 10262 10263 10263 10264 10264 10264 10264 10264 10265 10266 10266 10266 10266 10266 10267 10267 10268 10268 10268 10269 10269 10269 10270 10270 10271 10271 10272 10273 10273 10273 10274 10274 10274 10275 10276 10276 10277 10278 10278 10279 10279 10280 10281 10282 10283 10283 10284 10284 10284 10285 10286 10286 10286 10286 10287 10287 10287 10287 10287 10287 10287 10287 10287 10287 10287
10241 10242 10243 10244 10246 10247 10249 10249 10250 10251 10251 10252 10252 10253 10254 10254 10255 10256 10256 10256 10257 10258 10258 10259 10259 10259 10260 10260 10260 10261 10261 10262 10262 10263 10263 10263 10263 10264 10264 10264 10265 10266 10266 10267 10267 10268 10268 10269 10269 10269 10270 10271 10271 10272 10272 10273 10273 10274 10274 10275 10276 10276 10277 10278 10278 10279 10280 10280 10281 10281 10282 10283 10283 10283 10283 10283 10283 10283 10283 10283 10283 10283 10283 10283 10282 10282
10236 10238 10239 10240 10241 10243 10244 10244 10246 10246 10247 10247 10248 10248 10249 10250 10251 10251 10252 10253 10253 10254 10254 10254 10255 10256 10256 10256 10256 10257 10258 10258 10258 10259 10259 10259 10260 10261 10261 10261 10262 10263 10263 10264 10264 10264 10265 10266 10266 10267 10268 10268 10268 10269 10269 10269 10270 10271 10271 10273 10273 10273 10274 10274 10275 10276 10276 10277 10278 10278 10279 10279 10279 10279 10279 10279 10279 10279 10279 10279 10279 10278 10278 10278 10278 10277
10231 10233 10234 10236 10237 10238 10239 10240 10241 10241 10242 10243 10243 10244 10245 10246 10247 10248 10248 10248 10249 10249 10250 10251 10251 10251 10251 10252 10253 10253 10254 10254 10254 10255 10256 10256 10257 10257 10258 10258 10259 10259 10260 10261 10261 10262 10262 10263 10263 10264 10264 10265 10265 10266 10266 10267 10268 10268 10268 10269 10269 10270 10271 10271 10272 10273 10273 10273 10274 10274 10275 10276 10276 10276 10275 10275 10275 10275 10275 10275 10274 10274 10274 10273 10273 10273
10227 10228 10230 10231 10233 10234 10234 10235 10236 10237 10237 10238 10239 10240 10241 10242 10243 10243 10244 10244 10245 10246 10246 10246 10247 10248 10248 10248 10249 10249 10250 10251 10251 10252 10253 10253 10254 10254 10255 10256 10256 10257 10258 10258 10258 10259 10259 10260 10260 10261 10261 10262 10262 10263 10263 10264 10264 10265 10265 10266 10266 10267 10267 10268 10268 10269 10269 10270 10271 10271 10271 10272 10272 10272 10271 10271 10271 10271 10271 10271 10270 10270 10269 10269 10268 10268
10223 10224 10226 10227 10228 10229 10229 10231 10231 10232 10233 10234 10235 10236 10237 10238 10239 10239 10239 10240 10241 10241 10242 10243 10243 10244 10244 10244 10245 10246 10246 10247 10248 10249 10249 10250 10251 10251 10252 10253 10253 10254 10254 10255 10256 10256 10256 10257 10258 10258 10258 10259 10259 10259 10260 10261 10261 10262 10262 10263 10263 10263 10264 10264 10264 10265 10266 10266 10267 10268 10268 10268 10268 10268 10268 10268 10267 10267 10267 10266 10266 10266 10265 10264 10264 10263
10218 10220 10221 10223 10223 10224 10225 10226 10227 10228 10229 10230 10231 10233 10233 10234 10235 10236 10236 10236 10237 10238 10238 10239 10239 10240 10241 10241 10242 10243 10243 10244 10245 10246 10246 10247 10248 10249 10249 10250 10251 10251 10251 10252 10253 10253 10253 10254 10254 10255 10256 10256 10257 10257 10258 10258 10258 10259 10259 10259 10259 10260 10260 10260 10261 10261 10262 10263 10263 10263 10264 10264 10264 10264 10264 10263 10263 10263 10262 10262 10261 10261 10261 10260 10259 10258
10214 10216 10217 10218 10219 10219 10221 10221 10223 10224 10225 10226 10228 10228 10229 10230 10231 10231 10232 10233 10234 10234 10234 10235 10236 10236 10237 10238 10238 10239 10240 10241 10242 10243 10243 10244 10245 10246 10246 10247 10248 10248 10248 10249 10249 10250 10251 10251 10252 10253 10253 10254 10254 10254 10254 10255 10255 10256 10256 10256 10256 10256 10257 10257 10257 10258 10258 10258 10259 10259 10259 10259 10259 10259 10259 10259 10258 10258 10258 10257 10257 10256 10256 10255 10254 10253
10210 10211 10213 10213 10214 10215 10216 10218 10219 10220 10221 10223 10224 10225 10226 10226 10227 10228 10229 10229 10230 10231 10231 10232 10233 10233 10234 10234 10235 10236 10237 10238 10239 10239 10241 10241 10243 10243 10244 10244 10244 10245 10246 10246 10246 10247 10248 10248 10249 10249 10250 10251 10251 10252 10252 10252 10253 10253 10253 10253 10253 10253 10253 10253 10254 10254 10254 10254 10254 10255 10255 10255 10255 10254 10254 10254 10253 10253 10253 10252 10252 10251 10251 10251 10249 10248